TimeEST,TemperatureF,Dew PointF,Humidity,Sea Level PressureIn,VisibilityMPH,Wind Direction,Wind SpeedMPH,Gust SpeedMPH,PrecipitationIn,Events,Conditions,WindDirDegrees,DateUTC
12:53 AM,28.0,19.9,72,30.12,10.0,West,6.9,-,N/A,,Overcast,280,2012-12-28 05:53:00
1:53 AM,28.0,19.9,72,30.12,10.0,West,3.5,-,N/A,,Overcast,270,2012-12-28 06:53:00
2:53 AM,28.0,19.9,72,30.14,10.0,West,4.6,-,N/A,,Overcast,270,2012-12-28 07:53:00
3:53 AM,27.0,19.9,75,30.14,10.0,WSW,4.6,-,N/A,,Overcast,240,2012-12-28 08:53:00
4:53 AM,27.0,19.9,75,30.15,10.0,WSW,4.6,-,N/A,,Overcast,240,2012-12-28 09:53:00
5:53 AM,27.0,19.9,75,30.16,10.0,WSW,4.6,-,N/A,,Overcast,250,2012-12-28 10:53:00
6:53 AM,25.0,19.0,78,30.16,10.0,Calm,Calm,-,N/A,,Overcast,0,2012-12-28 11:53:00
7:35 AM,23.0,17.6,80,30.13,10.0,Calm,Calm,-,N/A,,Scattered Clouds,0,2012-12-28 12:35:00
7:53 AM,23.0,17.1,78,30.16,10.0,Calm,Calm,-,N/A,,Clear,0,2012-12-28 12:53:00
8:53 AM,23.0,18.0,81,30.16,10.0,Calm,Calm,-,N/A,,Mostly Cloudy,0,2012-12-28 13:53:00
9:41 AM,24.8,19.4,80,30.13,10.0,SSW,5.8,-,N/A,,Scattered Clouds,200,2012-12-28 14:41:00
9:53 AM,25.0,19.0,78,30.17,10.0,SSW,4.6,-,N/A,,Clear,210,2012-12-28 14:53:00
10:15 AM,26.6,19.4,74,30.14,10.0,SW,5.8,-,N/A,,Mostly Cloudy,220,2012-12-28 15:15:00
10:53 AM,28.0,21.0,75,30.17,10.0,SW,3.5,-,N/A,,Overcast,230,2012-12-28 15:53:00
11:53 AM,28.9,19.9,69,30.18,10.0,SW,9.2,-,N/A,,Overcast,230,2012-12-28 16:53:00
12:53 PM,28.9,19.9,69,30.17,10.0,WSW,5.8,-,N/A,,Overcast,240,2012-12-28 17:53:00
1:53 PM,30.0,21.0,69,30.15,10.0,SSW,5.8,-,N/A,,Overcast,200,2012-12-28 18:53:00
2:53 PM,30.0,19.9,66,30.12,10.0,Variable,3.5,-,N/A,,Overcast,0,2012-12-28 19:53:00
3:49 PM,30.2,19.4,64,30.05,10.0,SE,4.6,-,N/A,,Mostly Cloudy,140,2012-12-28 20:49:00
3:53 PM,30.0,19.9,66,30.08,10.0,SE,4.6,-,N/A,,Mostly Cloudy,130,2012-12-28 20:53:00
4:48 PM,30.2,19.4,64,30.05,10.0,Calm,Calm,-,N/A,,Overcast,0,2012-12-28 21:48:00
4:53 PM,30.0,19.9,66,30.09,10.0,Calm,Calm,-,N/A,,Overcast,0,2012-12-28 21:53:00
5:53 PM,28.9,19.0,67,30.08,10.0,SSE,3.5,-,N/A,,Overcast,150,2012-12-28 22:53:00
6:22 PM,28.4,19.4,69,30.04,10.0,Calm,Calm,-,N/A,,Scattered Clouds,0,2012-12-28 23:22:00
6:53 PM,25.0,18.0,75,30.07,10.0,SE,3.5,-,N/A,,Partly Cloudy,130,2012-12-28 23:53:00
7:53 PM,23.0,17.1,78,30.08,10.0,Calm,Calm,-,N/A,,Clear,0,2012-12-29 00:53:00
8:53 PM,19.9,16.0,85,30.04,9.0,East,3.5,-,N/A,,Clear,90,2012-12-29 01:53:00
9:53 PM,19.9,16.0,85,30.03,9.0,East,4.6,-,N/A,,Partly Cloudy,100,2012-12-29 02:53:00
10:53 PM,23.0,17.1,78,30.01,10.0,East,3.5,-,N/A,,Scattered Clouds,100,2012-12-29 03:53:00
11:53 PM,24.1,18.0,77,29.98,10.0,ESE,4.6,-,N/A,,Clear,110,2012-12-29 04:53:00